Location: Gälforsberget
(66.6500°N, 22.4167°E)
Time: 21:11:00
(UTC+00:00)

Cosmos 1605 Rocket - Pass Details

Date: 11 April 2026
Orbit: 945 x 1004 km, 82.9° (Epoch: 11 May)

Event Time Altitude Azimuth Distance (km) Brightness Sun altitude
Exits shadow 22:32:46 14° 217° (SW) 2,402 5.6 -14.8°
Maximum altitude 22:38:04 62° 296° (WNW) 1,068 4.3 -14.7°
Drops below altitude 10° 22:44:11 10° 18° (NNE) 2,699 7.6 -14.7°
Sets 22:46:45 0° 22° (NNE) 3,655 8.5 -14.7°
